TimeEST,TemperatureF,Dew PointF,Humidity,Sea Level PressureIn,VisibilityMPH,Wind Direction,Wind SpeedMPH,Gust SpeedMPH,PrecipitationIn,Events,Conditions,WindDirDegrees,DateUTC
12:15 AM,34.0,26.4,74,29.99,10.0,WSW,8.1,-,N/A,,Overcast,250,2013-01-17 05:15:00
12:36 AM,34.0,26.6,74,29.99,10.0,WSW,11.5,-,N/A,,Overcast,250,2013-01-17 05:36:00
12:55 AM,34.2,26.6,74,30.00,10.0,WSW,6.9,-,N/A,,Overcast,250,2013-01-17 05:55:00
1:15 AM,34.2,26.6,74,30.01,10.0,WSW,6.9,-,N/A,,Overcast,250,2013-01-17 06:15:00
1:36 AM,34.2,27.0,75,30.02,10.0,WSW,4.6,-,N/A,,Overcast,240,2013-01-17 06:36:00
1:55 AM,34.2,27.3,76,30.03,10.0,WSW,8.1,-,N/A,,Overcast,240,2013-01-17 06:55:00
2:15 AM,34.2,27.3,76,30.03,10.0,WSW,5.8,-,N/A,,Overcast,240,2013-01-17 07:15:00
2:35 AM,34.3,27.3,76,30.04,10.0,WSW,5.8,-,N/A,,Overcast,250,2013-01-17 07:35:00
2:55 AM,34.7,27.3,74,30.05,10.0,WSW,5.8,-,N/A,,Overcast,250,2013-01-17 07:55:00
3:16 AM,34.7,27.5,75,30.06,10.0,West,6.9,-,N/A,,Overcast,260,2013-01-17 08:16:00
3:35 AM,34.7,27.7,76,30.06,10.0,West,4.6,-,N/A,,Overcast,270,2013-01-17 08:35:00
3:55 AM,34.7,27.9,76,30.06,10.0,West,5.8,-,N/A,,Overcast,270,2013-01-17 08:55:00
4:35 AM,34.7,28.0,77,30.06,10.0,West,5.8,-,N/A,,Overcast,270,2013-01-17 09:35:00
4:56 AM,34.7,28.0,77,30.06,10.0,West,5.8,-,N/A,,Overcast,260,2013-01-17 09:56:00
5:15 AM,34.7,28.2,77,30.08,10.0,West,6.9,-,N/A,,Overcast,260,2013-01-17 10:15:00
5:35 AM,34.0,28.2,79,30.08,10.0,West,5.8,-,N/A,,Overcast,270,2013-01-17 10:35:00
5:56 AM,33.4,28.0,81,30.09,10.0,West,5.8,-,N/A,,Scattered Clouds,260,2013-01-17 10:56:00
6:15 AM,33.1,28.0,82,30.10,10.0,West,6.9,-,N/A,,Clear,270,2013-01-17 11:15:00
6:36 AM,32.4,27.5,82,30.10,7.0,West,3.5,-,N/A,,Clear,280,2013-01-17 11:36:00
6:55 AM,32.0,27.3,83,30.11,7.0,Calm,Calm,-,N/A,,Clear,0,2013-01-17 11:55:00
7:15 AM,30.4,26.1,84,30.12,7.0,Calm,Calm,-,N/A,,Clear,0,2013-01-17 12:15:00
7:36 AM,31.8,27.5,84,30.13,7.0,Calm,Calm,-,N/A,,Clear,0,2013-01-17 12:36:00
7:55 AM,31.6,27.1,83,30.13,7.0,West,3.5,-,N/A,,Clear,280,2013-01-17 12:55:00
8:16 AM,31.5,27.1,84,30.14,5.0,Calm,Calm,-,N/A,,Clear,0,2013-01-17 13:16:00
8:35 AM,31.1,26.6,83,30.14,5.0,Calm,Calm,-,N/A,,Clear,0,2013-01-17 13:35:00
8:55 AM,31.6,27.3,84,30.15,5.0,Calm,Calm,-,N/A,,Clear,0,2013-01-17 13:55:00
9:16 AM,32.0,27.3,83,30.16,7.0,Calm,Calm,-,N/A,,Clear,0,2013-01-17 14:16:00
9:35 AM,32.0,27.1,82,30.17,7.0,Calm,Calm,-,N/A,,Clear,0,2013-01-17 14:35:00
9:56 AM,32.0,27.3,83,30.18,7.0,Calm,Calm,-,N/A,,Clear,0,2013-01-17 14:56:00
10:15 AM,33.6,28.0,80,30.18,7.0,SSW,3.5,-,N/A,,Clear,210,2013-01-17 15:15:00
10:35 AM,35.4,27.7,73,30.19,10.0,Calm,Calm,-,N/A,,Clear,0,2013-01-17 15:35:00
10:56 AM,34.9,25.9,70,30.20,10.0,North,4.6,-,N/A,,Scattered Clouds,350,2013-01-17 15:56:00
11:15 AM,34.9,24.3,65,30.20,10.0,NW,6.9,-,N/A,,Scattered Clouds,320,2013-01-17 16:15:00
11:35 AM,36.1,24.3,62,30.19,10.0,NW,5.8,-,N/A,,Scattered Clouds,310,2013-01-17 16:35:00
11:55 AM,36.1,24.1,62,30.18,10.0,NNW,5.8,-,N/A,,Scattered Clouds,330,2013-01-17 16:55:00
12:16 PM,36.5,23.9,60,30.17,10.0,NW,4.6,-,N/A,,Scattered Clouds,310,2013-01-17 17:16:00
12:35 PM,37.4,24.3,59,30.16,10.0,NW,4.6,-,N/A,,Clear,310,2013-01-17 17:35:00
12:55 PM,38.1,23.7,56,30.15,10.0,NW,8.1,-,N/A,,Scattered Clouds,310,2013-01-17 17:55:00
1:15 PM,38.7,23.4,54,30.14,10.0,West,5.8,-,N/A,,Scattered Clouds,280,2013-01-17 18:15:00
1:35 PM,39.0,22.8,52,30.14,10.0,West,6.9,-,N/A,,Scattered Clouds,270,2013-01-17 18:35:00
1:56 PM,38.5,22.5,53,30.13,10.0,WNW,8.1,-,N/A,,Scattered Clouds,290,2013-01-17 18:56:00
2:15 PM,39.6,22.5,50,30.12,10.0,West,8.1,-,N/A,,Scattered Clouds,280,2013-01-17 19:15:00
2:36 PM,39.9,21.9,49,30.11,10.0,WNW,11.5,17.3,N/A,,Scattered Clouds,290,2013-01-17 19:36:00
2:55 PM,40.1,21.9,48,30.10,10.0,West,9.2,-,N/A,,Scattered Clouds,280,2013-01-17 19:55:00
3:16 PM,39.0,22.1,51,30.11,10.0,NW,10.4,16.1,N/A,,Scattered Clouds,310,2013-01-17 20:16:00
3:35 PM,40.8,21.9,47,30.11,10.0,WNW,10.4,19.6,N/A,,Mostly Cloudy,290,2013-01-17 20:35:00
3:56 PM,40.3,21.4,47,30.12,10.0,West,9.2,-,N/A,,Mostly Cloudy,280,2013-01-17 20:56:00
4:16 PM,38.7,19.2,46,30.13,10.0,NW,11.5,18.4,N/A,,Scattered Clouds,310,2013-01-17 21:16:00
4:35 PM,37.0,17.8,46,30.14,10.0,NW,11.5,19.6,N/A,,Clear,310,2013-01-17 21:35:00
4:56 PM,35.8,18.0,48,30.15,10.0,NW,11.5,21.9,N/A,,Clear,310,2013-01-17 21:56:00
5:15 PM,34.2,17.2,50,30.15,10.0,NW,11.5,17.3,N/A,,Clear,310,2013-01-17 22:15:00
5:35 PM,32.9,15.6,49,30.17,10.0,NW,12.7,20.7,N/A,,Clear,310,2013-01-17 22:35:00
5:55 PM,32.0,15.3,50,30.18,10.0,WNW,10.4,17.3,N/A,,Clear,300,2013-01-17 22:55:00
6:15 PM,31.1,15.1,52,30.20,10.0,NW,11.5,17.3,N/A,,Clear,310,2013-01-17 23:15:00
6:36 PM,30.2,15.6,55,30.22,10.0,NW,9.2,18.4,N/A,,Clear,310,2013-01-17 23:36:00
6:55 PM,29.3,15.4,56,30.23,10.0,NW,16.1,24.2,N/A,,Clear,310,2013-01-17 23:55:00
7:16 PM,27.7,14.0,57,30.25,10.0,WNW,12.7,20.7,N/A,,Clear,300,2013-01-18 00:16:00
7:35 PM,27.0,13.1,56,30.26,10.0,NW,12.7,21.9,N/A,,Clear,310,2013-01-18 00:35:00
7:55 PM,26.1,13.5,59,30.27,10.0,NW,9.2,18.4,N/A,,Clear,310,2013-01-18 00:55:00
8:16 PM,25.2,13.1,60,30.28,10.0,WNW,11.5,19.6,N/A,,Clear,300,2013-01-18 01:16:00
8:35 PM,24.6,12.6,60,30.30,10.0,WNW,10.4,16.1,N/A,,Clear,300,2013-01-18 01:35:00
8:55 PM,23.9,9.7,55,30.30,10.0,NW,11.5,21.9,N/A,,Clear,320,2013-01-18 01:55:00
9:16 PM,23.4,8.4,53,30.30,10.0,NW,13.8,21.9,N/A,,Clear,310,2013-01-18 02:16:00
9:56 PM,22.6,7.7,53,30.31,10.0,NNW,9.2,18.4,N/A,,Clear,330,2013-01-18 02:56:00
10:15 PM,22.1,7.9,54,30.31,10.0,NW,9.2,16.1,N/A,,Clear,320,2013-01-18 03:15:00
10:35 PM,21.9,8.4,56,30.32,10.0,NW,8.1,-,N/A,,Clear,310,2013-01-18 03:35:00
10:56 PM,21.9,8.1,55,30.31,10.0,NW,5.8,-,N/A,,Clear,310,2013-01-18 03:56:00
11:15 PM,21.4,8.2,57,30.32,10.0,NW,3.5,-,N/A,,Scattered Clouds,310,2013-01-18 04:15:00
11:36 PM,21.0,8.4,58,30.32,10.0,Calm,Calm,-,N/A,,Scattered Clouds,0,2013-01-18 04:36:00
11:55 PM,21.2,9.3,60,30.32,10.0,Calm,Calm,-,N/A,,Mostly Cloudy,0,2013-01-18 04:55:00